Location: Poughquag
(41.6090°N, 73.6820°W)
Time: 02:46:30
(UTC-04:00)

Vanguard 2 Rocket - Pass Details

Date: 03 June 2020
Orbit: 556 x 3324 km, 32.9° (Epoch: 06 July)

Event Time Altitude Azimuth Distance (km) Brightness Sun altitude
Rises 19:18:13 0° 271° (W) 4,658 12.1 10.3°
Reaches altitude 10° 19:21:02 10° 264° (W) 3,993 11.5 9.8°
Maximum altitude 19:31:27 42° 198° (SSW) 3,130 9.7 8.0°
Drops below altitude 10° 19:47:34 10° 137° (SE) 6,058 10.5 5.2°
Sets 19:53:07 0° 131° (SE) 7,245 10.8 4.3°
